Belleville, IL

4:30 AM CDT on August 18, 2017 (GMT -0500)
Scott Air Force Base-Midamerica

Weather History for KBLV - November, 2012

Change the Weather History Date:

Saturday, November 10, 2012

  Actual Average Record
Temperature  
Mean Temperature 64 °F -  
Max Temperature 75 °F 57 °F 77 °F (1949)
Min Temperature 54 °F 35 °F 16 °F (1991)
Growing Degree Days 14 (Base 50)    
Moisture  
Dew Point 49 °F    
Average Humidity 62    
Maximum Humidity 73    
Minimum Humidity 40    
Precipitation  
Precipitation 0.00 in - - ()
Sea Level Pressure  
Sea Level Pressure 29.99 in    
Wind  
Wind Speed 13 mph (South)    
Max Wind Speed 21 mph    
Max Gust Speed 29 mph    
Visibility 10 miles    
Events      
Averages and records for this station are not official NWS values.
T = Trace of Precipitation, MM = Missing Value Source: NWS Daily Summary

Daily Weather History Graph

Daily Weather History Graph

Search for Another Location

Airport or City:

Trip Planner

Search our weather history database for the weather conditions in past years. The results will help you decide how hot, cold, wet, or windy it might be!

Date:

Astronomy

Nov. 10, 2012 Rise Set
Actual Time 6:36 AM CST 4:49 PM CST
Civil Twilight 6:08 AM CST 5:17 PM CST
Nautical Twilight 5:36 AM CST 5:49 PM CST
Astronomical Twilight 5:05 AM CST 6:20 PM CST
Moon 2:43 AM CST (11/10) 2:34 PM CST (11/10)
Length of Visible Light 11h 09m
Length of Day
10h 13m
Waning Crescent, 14% of the Moon is Illuminated
Nov 10
Waning Crescent
Nov 13
New
Nov 20
First Quarter
Nov 28
Full
Dec 6
Last Quarter

Hourly Weather History & Observations

Time (CST) Temp. Dew Point Humidity Pressure Visibility Wind Dir Wind Speed Gust Speed Precip Events Conditions
12:55 AM 57.2 °F 47.1 °F 69% 30.01 in 10.0 mi South 11.5 mph - N/A   Clear
1:55 AM 57.4 °F 45.0 °F 63% 30.01 in 10.0 mi South 10.4 mph - N/A   Clear
2:55 AM 56.7 °F 44.2 °F 63% 30.01 in 10.0 mi South 9.2 mph - N/A   Clear
3:55 AM 55.9 °F 44.4 °F 65% 30.01 in 10.0 mi South 9.2 mph - N/A   Clear
4:55 AM 55.0 °F 44.6 °F 68% 30.02 in 10.0 mi South 11.5 mph - N/A   Clear
5:55 AM 54.1 °F 45.1 °F 72% 30.02 in 10.0 mi South 11.5 mph - N/A   Scattered Clouds
6:55 AM 54.7 °F 46.0 °F 73% 30.03 in 10.0 mi South 9.2 mph - N/A   Mostly Cloudy
7:55 AM 57.4 °F 47.8 °F 70% 30.04 in 10.0 mi South 13.8 mph - N/A   Mostly Cloudy
8:55 AM 59.2 °F 49.6 °F 71% 30.03 in 10.0 mi South 13.8 mph - N/A   Scattered Clouds
9:55 AM 64.0 °F 51.4 °F 64% 30.02 in 10.0 mi SSW 15.0 mph 23.0 mph N/A   Clear
10:55 AM 66.9 °F 51.3 °F 57% 30.01 in 10.0 mi South 17.3 mph 25.3 mph N/A   Clear
11:55 AM 70.0 °F 51.3 °F 51% 29.98 in 10.0 mi South 18.4 mph 23.0 mph N/A   Clear
12:55 PM 75.0 °F 49.8 °F 41% 29.95 in 10.0 mi SSW 18.4 mph 28.8 mph N/A   Clear
1:55 PM 75.6 °F 49.5 °F 40% 29.94 in 10.0 mi South 20.7 mph 26.5 mph N/A   Clear
2:55 PM 72.9 °F 53.6 °F 51% 29.95 in 10.0 mi South 18.4 mph - N/A   Clear
3:55 PM 70.7 °F 53.8 °F 55% 29.95 in 10.0 mi South 18.4 mph 24.2 mph N/A   Clear
4:55 PM 67.6 °F 54.0 °F 61% 29.96 in 10.0 mi South 18.4 mph - N/A   Clear
5:55 PM 65.8 °F 52.7 °F 62% 29.99 in 10.0 mi South 12.7 mph - N/A   Clear
6:55 PM 64.2 °F 53.6 °F 68% 30.01 in 10.0 mi South 10.4 mph - N/A   Clear
7:55 PM 63.5 °F 52.2 °F 67% 30.00 in 10.0 mi SSE 13.8 mph - N/A   Clear
8:55 PM 63.3 °F 50.4 °F 63% 29.99 in 10.0 mi South 15.0 mph - N/A   Clear
9:55 PM 62.8 °F 49.3 °F 61% 29.99 in 10.0 mi South 16.1 mph - N/A   Clear
10:55 PM 62.2 °F 48.2 °F 60% 29.97 in 10.0 mi South 19.6 mph - N/A   Clear
11:55 PM 61.9 °F 49.3 °F 63% 29.96 in 10.0 mi South 16.1 mph 25.3 mph N/A   Clear